STARLINK-11557, 62837

Orbit data source: Space-Track

STARLINK-11557, 62837 is a payload satellite owned by SpaceX/Seattle (US) in LEO that was launched on Mon, 27 Jan 2025 UTC via an FALCON 9 launch vehicle from the Air Force Eastern Test Range (AFETR). Payload-class satellites include a variety of spacecraft equipped with specific instruments for various scientific and technological missions. These include communications satellites like Starlink; space stations such as the ISS; scientific satellites like the Hubble; Earth observation satellites from companies like Planet Labs, Umbra, and HawkEye 360; GPS; miniature CubeSats for education and research; and military/defense satellites.

Loading next visibility...
Identifier
62837, 2025-019J
Orbit
LEO
Last TLE update
7 hours ago
Origin
Manufacturer
SpaceX/Seattle
Mission
Operational Commercial Communications
Bus & Motor
STARLINK V2M, Unknown motor
Mass
730 kg wet, ~700 kg dry
Launch date (UTC)
2025-01-27 (5 months ago)
Launch vehicle
FALCON 9
Launch site
Air Force Eastern Test Range (AFETR)
Object type
Payload
Rocket body
Debris
Shape & HBR
Box + 2 Pan, 29 m
Radar Cross Section
36.964 m², Large (>1 m²)

Expand to show TLE details & history

TLE from 7 hours ago
0 STARLINK-11557
1 62837U 25019J   25183.56186647  .00158789  00000-0  12155-2 0  9999
2 62837  43.0019  13.5333 0003466 261.7900  98.2574 15.70874562 24542
Epoch: 2025-07-02T13:29Z
TLE epoch observation values (Epoch: 2025-07-02T13:29:05.263Z)
Latitude
-0.00004°
Longitude
-109.57987°
Altitude
356.504 km
Speed
7.697 km/s
True Right ascension
00h 54m 07s
True Declination
0° 00' 00"
Sunlit
Object was in daylight at epoch
Visualization orbit readout
Latitude
29.38156°
Longitude
31.84745°
Altitude
358.088 km
Speed
7.698 km/s
Apparent Right ascension
14h 05m 23s
Apparent Declination
-12° 36' 16"
Sunlit
Object is in daylight
Visualization observer readout
Local Sidereal Time
07:53:25
Azimuth
97.868° ESE
Elevation
-10.317°
Doppler factor
1
Orbital elements
Apogee altitude
360.712 km
Perigee altitude
356.043 km
Semi-major axis
6,736.515 km
Eccentricity
0.00035
Inclination
43.0019°
RAAN
13.5333°
Arg. of periapsis
261.79°
True anomaly
Unknown
Mean anomaly
98.2574°
Eccentric anomaly
Unknown
Mean motion
3.92546 °/min
Orbital period
91.71 mins
BSTAR
0.0012155
Loading maneuver chart data...
Loading SW <> Apogee altitude chart data...
Loading historical data...
Loading historical data...
Loading historical data...
Loading historical data...
Loading historical data...
Loading historical data...
Loading historical data...

STARLINK-11557 Visibility forecast

Observer location: undefined°, undefined°

Span
Click to sort rows by Start time (UTC) header in descending order
Start Az.
Max El. time (UTC)
Max El. Az.
Max El.
End time (UTC)
End Az.
5 mins2025-07-02 21:34:25.907Z276.911° WNW2025-07-02 21:37:25.907Z184.013° SSW31.417°2025-07-02 21:39:25.907Z138.02° SSE
4 mins2025-07-03 17:14:25.907Z268.476° W2025-07-03 17:15:25.907Z297.83° NW40.671°2025-07-03 17:18:25.907Z68.879° E
4 mins2025-07-03 18:50:25.907Z298.995° NW2025-07-03 18:52:25.907Z26.04° NE33.319°2025-07-03 18:54:25.907Z73.963° E
|